Location: Slemon Park
(46.4340°N, 63.8219°W)
Time: 12:59:27
(UTC-03:00)

ISS - All Passes

Search period start: 29 June 2017 00:00
Search period end: 09 July 2017 00:00
Orbit: 401 x 408 km, 51.6° (Epoch: 30 June)

Date Brightness Start Highest point End Pass type
(mag) Time Alt. Az. Time Alt. Az. Time Alt. Az.
29 Jun - 07:55:10 10° SSW 07:58:07 32° SE 08:01:06 10° ENE daylight
29 Jun - 09:31:18 10° W 09:34:31 52° NNW 09:37:45 10° ENE daylight
29 Jun - 11:08:26 10° WNW 11:11:26 31° N 11:14:26 10° ENE daylight
29 Jun - 12:45:05 10° WNW 12:48:20 55° NNE 12:51:35 10° E daylight
29 Jun - 14:21:45 10° WNW 14:24:42 30° SW 14:27:39 10° SSE daylight
30 Jun - 07:03:44 10° S 07:06:07 19° SE 07:08:30 10° E daylight
30 Jun - 08:39:00 10° WSW 08:42:16 77° NNW 08:45:35 10° ENE daylight
30 Jun - 10:16:04 10° WNW 10:19:05 32° N 10:22:07 10° ENE daylight
30 Jun - 11:52:54 10° WNW 11:56:04 41° NNE 11:59:13 10° E daylight
30 Jun - 13:29:25 10° WNW 13:32:38 52° SSW 13:35:51 10° SE daylight
01 Jul - 06:13:18 10° SSE 06:14:10 11° SE 06:15:02 10° ESE daylight
01 Jul - 07:46:51 10° SW 07:50:05 66° SSE 07:53:22 10° ENE daylight
01 Jul - 09:23:39 10° W 09:26:45 37° NNW 09:29:51 10° ENE daylight
01 Jul - 11:00:40 10° WNW 11:03:44 34° N 11:06:47 10° ENE daylight
01 Jul - 12:37:10 10° WNW 12:40:28 86° SSW 12:43:47 10° ESE daylight
01 Jul - 14:14:35 10° W 14:16:32 15° SW 14:18:29 10° S daylight
02 Jul - 06:54:54 10° SSW 06:57:58 38° SE 07:01:03 10° ENE daylight
02 Jul - 08:31:14 10° W 08:34:25 47° NNW 08:37:37 10° ENE daylight
02 Jul - 10:08:22 10° WNW 10:11:22 31° N 10:14:22 10° ENE daylight
02 Jul - 11:44:58 10° WNW 11:48:14 62° NNE 11:51:31 10° ESE daylight
02 Jul - 13:21:46 10° W 13:24:32 25° SW 13:27:17 10° SSE daylight
03 Jul - 06:03:16 10° SSW 06:05:54 23° SE 06:08:32 10° E daylight
03 Jul - 07:38:53 10° WSW 07:42:08 67° NNW 07:45:25 10° ENE daylight
03 Jul - 09:15:59 10° WNW 09:18:59 32° N 09:21:59 10° ENE daylight
03 Jul - 10:52:45 10° WNW 10:55:56 45° NNE 10:59:07 10° E daylight
03 Jul - 12:29:18 10° WNW 12:32:26 42° SW 12:35:34 10° SE daylight
04 Jul - 05:12:14 10° SSE 05:13:53 13° SE 05:15:33 10° ESE daylight
04 Jul - 06:46:38 10° WSW 06:49:53 79° SSE 06:53:11 10° ENE daylight
04 Jul - 08:23:33 10° WNW 08:26:36 35° N 08:29:40 10° ENE daylight
04 Jul - 10:00:31 10° WNW 10:03:35 36° N 10:06:41 10° E daylight
04 Jul - 11:36:59 10° WNW 11:40:16 73° SSW 11:43:32 10° SE daylight
04 Jul - 13:14:52 10° WSW 13:16:15 12° SW 13:17:36 10° SSW daylight
05 Jul - 05:54:34 10° SW 05:57:42 47° SE 06:00:53 10° ENE daylight
05 Jul - 07:31:05 10° W 07:34:14 42° NNW 07:37:24 10° ENE daylight
05 Jul - 09:08:11 10° WNW 09:11:12 32° N 09:14:12 10° ENE daylight
05 Jul - 10:44:43 10° WNW 10:48:01 72° NNE 10:51:18 10° ESE daylight
05 Jul - 12:21:40 10° W 12:24:13 21° SW 12:26:45 10° S daylight
06 Jul - 05:02:45 10° SSW 05:05:34 27° SE 05:08:24 10° E daylight
06 Jul - 06:38:39 10° WSW 06:41:54 58° NNW 06:45:08 10° ENE daylight
06 Jul - 08:15:47 10° WNW 08:18:46 31° N 08:21:46 10° ENE daylight
06 Jul - 09:52:29 10° WNW 09:55:42 50° NNE 09:58:54 10° E daylight
06 Jul - 11:29:05 10° WNW 11:32:07 35° SW 11:35:09 10° SSE daylight
07 Jul - 04:11:23 10° S 04:13:30 16° SE 04:15:37 10° E visible
07 Jul - 05:46:19 10° WSW 05:49:35 87° NNW 05:52:53 10° ENE daylight
07 Jul - 07:23:19 10° WNW 07:26:21 33° N 07:29:23 10° ENE daylight
07 Jul - 09:00:13 10° WNW 09:03:19 38° NNE 09:06:26 10° E daylight
07 Jul - 10:36:41 10° WNW 10:39:56 60° SSW 10:43:11 10° SE daylight
08 Jul - 04:54:08 10° SW 04:57:20 57° SSE 05:00:34 10° ENE visible
08 Jul - 06:30:49 10° W 06:33:55 39° NNW 06:37:03 10° ENE daylight
08 Jul - 08:07:52 10° WNW 08:10:54 33° N 08:13:55 10° ENE daylight
08 Jul - 09:44:23 10° WNW 09:47:41 84° NNE 09:50:57 10° ESE daylight
08 Jul - 11:21:33 10° W 11:23:47 17° SW 11:26:02 10° S daylight
